Torna al catalogo

KUIPER-00251

AttivoComunicazioniLEO
NORAD 67156·PAYLOAD·🇺🇸 United States

Lanciato Dec 15, 2025 da Cape Canaveral Space Force Station

Loading…

Prossimi Passaggi (prossime 24 ore)

TLE

AggiornatoSource: CelesTrak SupGP

Epoca: Sep 14, 2026, 15:02 UTC

1 67156C 25301Z   26257.62686343  .00007036  00000+0  92112-3 0  2576
2 67156  51.8997 302.6873 0000402  67.3074 172.8672 14.79922560    17

Traccia KUIPER-00251 in tempo reale con AllMySat

Download on the App Store